User: anonymous   Login
Location: Climax
(33.2048°N, 96.4497°W)
Time: 08:37:23
(UTC+00:00)
Language:

SKYMED 2 - Orbit

View from above orbital plane
View from above orbital plane
View from above satellite
View from above satellite

Ground track
Ground track

The orbit data is extracted from the following two-line orbital elements,

1 32376U 07059A   22147.84485353 -.00003825  00000-0 -47445-3 0  9995
2 32376  97.8885 331.8053 0001327  89.6014 270.5335 14.82135150782655
Epoch (UTC): 27 May 2022 20:16:35
Eccentricity: 0.0001327
inclination: 97.8885°
perigee height: 621 km
apogee height: 623 km
right ascension of ascending node: 331.8053°
argument of perigee: 89.6014°
revolutions per day: 14.82135150
mean anomaly at epoch: 270.5335°
orbit number at epoch: 78265

The dashed part of the orbit path shows where the satellite is in the earth's shadow,  

DLR